Weather History for PAFB - March, 2013

Change the Weather History Date:

Saturday, March 2, 2013

  Actual Average Record
Temperature  
Mean Temperature -2 °F -  
Max Temperature 8 °F 16 °F 32 °F (2004)
Min Temperature -11 °F -2 °F -40 °F (2007)
Degree Days  
Heating Degree Days 66    
Moisture  
Dew Point -6 °F    
Average Humidity 84    
Maximum Humidity 92    
Minimum Humidity 75    
Precipitation  
Precipitation 0.00 in - - ()
Sea Level Pressure  
Sea Level Pressure 30.12 in    
Wind  
Wind Speed 0 mph (West)    
Max Wind Speed 4 mph    
Max Gust Speed -    
Visibility 10 miles    
Events      
Averages and records for this station are not official NWS values.
T = Trace of Precipitation, MM = Missing Value Source: NWS Daily Summary

Daily Weather History Graph

Daily Weather History Graph

Search for Another Location

Airport or City:

Trip Planner

Search our weather history database for the weather conditions in past years. The results will help you decide how hot, cold, wet, or windy it might be!

Date:

Astronomy

Mar. 02, 2013 Rise Set
Actual Time 7:54 AM AKST 6:11 PM AKST
Civil Twilight 7:05 AM AKST 7:01 PM AKST
Nautical Twilight 6:08 AM AKST 7:57 PM AKST
Astronomical Twilight 5:10 AM AKST 8:57 PM AKST
Moon 1:03 AM AKST (3/2) 8:14 AM AKST (3/2)
Length of Visible Light 11h 55m
Length of Day
10h 17m
Waning Gibbous, 72% of the Moon is Illuminated
Mar 2
Waning Gibbous
Mar 4
Last Quarter
Mar 11
New
Mar 19
First Quarter
Mar 27
Full

Hourly Weather History & Observations

Time (AKST) Temp. Windchill Dew Point Humidity Pressure Visibility Wind Dir Wind Speed Gust Speed Precip Events Conditions
12:56 AM 1.9 °F - -2.9 °F 80% 30.06 in 9.0 mi Calm Calm - N/A   Overcast
1:56 AM -2.9 °F - -7.1 °F 82% 30.07 in 10.0 mi Calm Calm - N/A   Overcast
2:56 AM -6.0 °F - -9.9 °F 83% 30.07 in 10.0 mi Calm Calm - N/A   Mostly Cloudy
3:56 AM -4.0 °F - -9.0 °F 79% 30.08 in 10.0 mi Calm Calm - N/A   Overcast
4:56 AM -5.1 °F - -9.0 °F 83% 30.09 in 10.0 mi Calm Calm - N/A   Overcast
5:56 AM -9.0 °F - -13.0 °F 83% 30.11 in 10.0 mi Calm Calm - N/A   Clear
6:56 AM -9.0 °F - -14.1 °F 79% 30.11 in 10.0 mi Calm Calm - N/A   Scattered Clouds
7:56 AM -6.0 °F - -11.0 °F 79% 30.10 in 10.0 mi Calm Calm - N/A   Overcast
8:56 AM -11.9 °F - -14.1 °F 90% 30.11 in 10.0 mi Calm Calm - N/A   Clear
9:56 AM -9.0 °F - -11.0 °F 91% 30.12 in 10.0 mi Calm Calm - N/A   Clear
10:56 AM -2.0 °F - -5.1 °F 87% 30.13 in 10.0 mi Calm Calm - N/A   Mostly Cloudy
11:56 AM 3.0 °F - -0.9 °F 84% 30.14 in 10.0 mi Calm Calm - N/A   Overcast
12:56 PM 7.0 °F 0.1 °F 1.9 °F 80% 30.14 in 10.0 mi West 3.5 mph - N/A   Overcast
1:56 PM 7.0 °F - 1.9 °F 80% 30.14 in 10.0 mi Calm Calm - N/A   Partly Cloudy
2:56 PM 7.0 °F - 3.0 °F 84% 30.13 in 10.0 mi Calm Calm - N/A   Clear
3:56 PM 7.0 °F 0.1 °F 3.9 °F 87% 30.12 in 10.0 mi West 3.5 mph - N/A   Clear
4:56 PM 8.1 °F - 6.1 °F 92% 30.12 in 10.0 mi Calm Calm - N/A   Clear
5:56 PM 5.0 °F -2.1 °F 1.9 °F 87% 30.13 in 10.0 mi SW 3.5 mph - N/A   Clear
6:56 PM -0.0 °F - -2.9 °F 88% 30.15 in 10.0 mi Calm Calm - N/A   Clear
7:06 PM -2.2 °F - -4.0 °F 92% 30.10 in 1.8 mi Calm Calm - N/A   Clear
7:23 PM -0.4 °F - -2.2 °F 92% 30.10 in - Calm Calm - N/A   Clear
7:56 PM -4.0 °F - -8.0 °F 83% 30.16 in 10.0 mi Calm Calm - N/A   Clear
8:56 PM -6.0 °F - -9.9 °F 83% 30.18 in 10.0 mi Calm Calm - N/A   Clear
9:56 PM -6.0 °F - -11.0 °F 79% 30.19 in 10.0 mi Calm Calm - N/A   Clear
10:56 PM -11.0 °F - -15.0 °F 83% 30.20 in 10.0 mi Calm Calm - N/A   Clear
11:56 PM -9.0 °F - -15.0 °F 75% 30.20 in 10.0 mi Calm Calm - N/A   Clear